Grand Junction, CO

7:34 PM MDT on October 13, 2019 (GMT -0600)
Walker

Weather History for KGJT - May, 2019

Change the Weather History Date:

Tuesday, May 14, 2019

  Actual Average Record
Temperature  
Mean Temperature 68 °F 61 °F  
Max Temperature 85 °F 75 °F 93 °F (1984)
Min Temperature 51 °F 47 °F 29 °F (1907)
Degree Days  
Heating Degree Days 0 5  
Month to date heating degree days 127 97  
Since 1 July heating degree days 5524 5531  
Cooling Degree Days 3 1  
Month to date cooling degree days 3 11  
Year to date cooling degree days 4 14  
Growing Degree Days 20 (Base 50)    
Moisture  
Dew Point 33 °F    
Average Humidity 35    
Maximum Humidity 54    
Minimum Humidity 15    
Precipitation  
Precipitation 0.00 in 0.03 in 0.32 in (1935)
Month to date precipitation 0.12 0.44  
Year to date precipitation 5.17 3.39  
Snow  
Snow 0.00 in 0.00 in 0.00 in (2018)
Month to date snowfall 0.0 0.1  
Since 1 July snowfall 17.4 19.1  
Snow Depth 0.00 in    
Sea Level Pressure  
Sea Level Pressure 29.86 in    
Wind  
Wind Speed 9 mph (ESE)    
Max Wind Speed 25 mph    
Max Gust Speed 33 mph    
Visibility 10 miles    
Events      
T = Trace of Precipitation, MM = Missing Value Source: NWS Daily Summary

Daily Weather History Graph

Daily Weather History Graph

Search for Another Location

Airport or City:

Astronomy

May. 14, 2019 Rise Set
Actual Time 6:02 AM MDT 8:19 PM MDT
Civil Twilight 5:32 AM MDT 8:49 PM MDT
Nautical Twilight 4:55 AM MDT 9:26 PM MDT
Astronomical Twilight 4:14 AM MDT 10:07 PM MDT
Moon 3:47 PM MDT 3:54 AM MDT
Length of Visible Light 15h 17m
Length of Day
14h 17m
Waxing Gibbous, 79% of the Moon is Illuminated
May 14
Waxing Gibbous
May 18
Full
May 26
Last Quarter
Jun 3
New
Jun 10
First Quarter

Hourly Weather History & Observations

Time (MDT) Temp. Dew Point Humidity Pressure Visibility Wind Dir Wind Speed Gust Speed Precip Events Conditions
12:53 AM 60.1 °F 32.0 °F 35% 29.82 in 10.0 mi ESE 4.6 mph - N/A   Clear
1:53 AM 54.0 °F 35.1 °F 49% 29.84 in 10.0 mi East 5.8 mph - N/A   Clear
3:53 AM 52.0 °F 35.1 °F 53% 29.87 in 10.0 mi ESE 5.8 mph - N/A   Clear
4:53 AM 55.0 °F 34.0 °F 45% 29.87 in 10.0 mi SE 12.7 mph - N/A   Scattered Clouds
5:53 AM 57.0 °F 33.1 °F 40% 29.88 in 10.0 mi East 10.4 mph - N/A   Partly Cloudy
6:53 AM 55.0 °F 35.1 °F 47% 29.91 in 10.0 mi ESE 10.4 mph - N/A   Clear
7:53 AM 62.1 °F 37.0 °F 39% 29.93 in 10.0 mi East 10.4 mph - N/A   Clear
8:53 AM 66.0 °F 35.1 °F 32% 29.93 in 10.0 mi SSE 8.1 mph - N/A   Clear
9:53 AM 68.0 °F 36.0 °F 31% 29.93 in 10.0 mi SSE 6.9 mph - N/A   Clear
10:53 AM 72.0 °F 35.1 °F 26% 29.93 in 10.0 mi SSE 6.9 mph - N/A   Clear
11:53 AM 75.0 °F 34.0 °F 22% 29.92 in 10.0 mi SW 4.6 mph - N/A   Clear
12:53 PM 80.1 °F 33.1 °F 18% 29.88 in 10.0 mi Variable 6.9 mph - N/A   Clear
1:53 PM 81.0 °F 32.0 °F 17% 29.86 in 10.0 mi Variable 3.5 mph - N/A   Clear
2:53 PM 84.0 °F 35.1 °F 17% 29.82 in 10.0 mi WSW 8.1 mph - N/A   Clear
3:53 PM 84.0 °F 32.0 °F 15% 29.81 in 10.0 mi North 5.8 mph 16.1 mph N/A   Clear
4:53 PM 82.0 °F 30.0 °F 15% 29.79 in 10.0 mi SW 5.8 mph - N/A   Partly Cloudy
5:53 PM 81.0 °F 30.0 °F 16% 29.80 in 10.0 mi ESE 20.7 mph - N/A   Clear
6:09 PM 78.1 °F 30.9 °F 18% 29.97 in 10.0 mi East 19.6 mph 31.1 mph N/A   Clear
6:53 PM 78.1 °F 30.9 °F 18% 29.79 in 10.0 mi East 12.7 mph - N/A   Clear
7:53 PM 73.9 °F 30.9 °F 21% 29.80 in 10.0 mi ESE 9.2 mph - N/A   Clear
8:53 PM 66.0 °F 32.0 °F 28% 29.82 in 10.0 mi ESE 5.8 mph - N/A   Clear
9:53 PM 66.0 °F 34.0 °F 30% 29.83 in 10.0 mi East 9.2 mph - N/A   Clear
10:53 PM 66.9 °F 33.1 °F 28% 29.83 in 10.0 mi ESE 12.7 mph - N/A   Clear
11:53 PM 64.9 °F 33.1 °F 31% 29.83 in 10.0 mi East 10.4 mph - N/A   Clear